Location: Whitehorse
(60.7170°N, 135.0500°W)
Time: 07:02:37
(UTC-07:00)

SL-16 R/B - Visible Passes

Search period start: 28 March 2017 00:00
Search period end: 07 April 2017 00:00
Orbit: 840 x 850 km, 71.0° (Epoch: 26 March)

Date Brightness Start Highest point End Pass type
(mag) Time Alt. Az. Time Alt. Az. Time Alt. Az.
30 Mar 3.8 06:44:58 10° S 06:50:06 37° ESE 06:55:17 10° NE visible
31 Mar 3.8 06:30:57 10° S 06:36:04 36° ESE 06:41:12 10° NE visible
01 Apr 3.8 06:16:55 10° S 06:22:01 35° ESE 06:27:08 10° NE visible
02 Apr 3.8 06:02:55 10° S 06:07:58 34° ESE 06:13:03 10° NE visible
03 Apr 3.7 05:48:54 10° S 05:53:55 33° ESE 05:58:58 10° NE visible
04 Apr 3.7 05:34:53 10° S 05:39:52 33° ESE 05:44:54 10° NE visible
05 Apr 3.7 05:20:52 10° S 05:25:50 32° ESE 05:30:49 10° NE visible
06 Apr 3.7 05:06:51 10° S 05:11:47 31° ESE 05:16:45 10° NE visible
